User: anonymous
Location: Pleiades Observatory
(40.1297°N, 91.5238°W)
Time: 01:39:21
(UTC-05:00)
Language:

Cosmos 1842 Rocket - Orbit

View from above orbital plane
View from above orbital plane
View from above satellite
View from above satellite

Ground track
Ground track

The orbit data is extracted from the following two-line orbital elements,

1 17912U 87038B   14209.80598066  .00000261  00000-0  29434-4 0  4118
2 17912 082.5047 319.3437 0022057 102.3206 258.0479 14.82394571471492
Epoch (UTC): 28 July 2014 19:20:36
Eccentricity: 0.0022057
inclination: 82.5047°
perigee height: 606 km
apogee height: 637 km
right ascension of ascending node: 319.3437°
argument of perigee: 102.3206°
revolutions per day: 14.82394571
mean anomaly at epoch: 258.0479°
orbit number at epoch: 47149

The dashed part of the orbit path shows where the satellite is in the earth's shadow,  

DLR